Time,TemperatureF,DewpointF,PressureIn,WindDirection,WindDirectionDegrees,WindSpeedMPH,WindSpeedGustMPH,Humidity,HourlyPrecipIn,Conditions,Clouds,dailyrainin,SoftwareType,DateUTC
2013-04-24 00:02:00,36.0,33.0,30.05,North,-999,-999.0,-999.0,89,-99.99,,,-99.99,,2013-04-24 05:02:00,
2013-04-24 00:12:00,36.0,33.0,30.05,North,-999,-999.0,-999.0,89,-99.99,,,-99.99,,2013-04-24 05:12:00,
2013-04-24 00:22:00,36.0,33.0,30.05,North,-999,-999.0,-999.0,89,-99.99,,,-99.99,,2013-04-24 05:22:00,
2013-04-24 00:32:00,36.0,33.0,30.05,North,-999,-999.0,-999.0,89,-99.99,,,-99.99,,2013-04-24 05:32:00,
2013-04-24 00:42:00,36.0,33.0,30.06,North,-999,-999.0,-999.0,89,-99.99,,,-99.99,,2013-04-24 05:42:00,
2013-04-24 00:52:00,36.0,33.0,30.06,North,-999,-999.0,-999.0,89,-99.99,,,-99.99,,2013-04-24 05:52:00,
2013-04-24 01:02:00,36.0,33.0,30.07,North,-999,-999.0,-999.0,88,-99.99,,,-99.99,,2013-04-24 06:02:00,
2013-04-24 01:12:00,36.0,33.0,30.07,North,-999,-999.0,-999.0,88,-99.99,,,-99.99,,2013-04-24 06:12:00,
2013-04-24 01:21:00,36.0,33.0,30.07,North,-999,-999.0,-999.0,88,-99.99,,,-99.99,,2013-04-24 06:21:00,
2013-04-24 01:32:00,36.0,33.0,30.07,North,-999,-999.0,-999.0,88,-99.99,,,-99.99,,2013-04-24 06:32:00,
2013-04-24 01:42:00,36.0,32.0,30.07,North,-999,-999.0,-999.0,87,-99.99,,,-99.99,,2013-04-24 06:42:00,
2013-04-24 01:51:00,36.0,32.0,30.07,North,-999,-999.0,-999.0,87,-99.99,,,-99.99,,2013-04-24 06:51:00,
2013-04-24 02:02:00,36.0,33.0,30.08,North,-999,-999.0,-999.0,87,-99.99,,,-99.99,,2013-04-24 07:02:00,
2013-04-24 02:11:00,36.0,33.0,30.07,North,-999,-999.0,-999.0,87,-99.99,,,-99.99,,2013-04-24 07:11:00,
2013-04-24 02:22:00,36.0,33.0,30.07,North,-999,-999.0,-999.0,87,-99.99,,,-99.99,,2013-04-24 07:22:00,
2013-04-24 02:32:00,36.0,33.0,30.09,North,-999,-999.0,-999.0,87,-99.99,,,-99.99,,2013-04-24 07:32:00,
2013-04-24 02:42:00,36.0,33.0,30.09,North,-999,-999.0,-999.0,87,-99.99,,,-99.99,,2013-04-24 07:42:00,
2013-04-24 02:52:00,36.0,33.0,30.09,North,-999,-999.0,-999.0,87,-99.99,,,-99.99,,2013-04-24 07:52:00,
2013-04-24 03:02:00,36.0,33.0,30.09,North,-999,-999.0,-999.0,87,-99.99,,,-99.99,,2013-04-24 08:02:00,
2013-04-24 03:12:00,36.0,33.0,30.08,North,-999,-999.0,-999.0,87,-99.99,,,-99.99,,2013-04-24 08:12:00,
2013-04-24 03:21:00,36.0,33.0,30.08,North,-999,-999.0,-999.0,87,-99.99,,,-99.99,,2013-04-24 08:21:00,
2013-04-24 03:33:00,36.0,33.0,30.08,North,-999,-999.0,-999.0,87,-99.99,,,-99.99,,2013-04-24 08:33:00,
2013-04-24 03:42:00,36.0,33.0,30.07,North,-999,-999.0,-999.0,87,-99.99,,,-99.99,,2013-04-24 08:42:00,
2013-04-24 03:52:00,36.0,33.0,30.07,North,-999,-999.0,-999.0,87,-99.99,,,-99.99,,2013-04-24 08:52:00,
2013-04-24 04:02:00,36.0,33.0,30.08,North,-999,-999.0,-999.0,87,-99.99,,,-99.99,,2013-04-24 09:02:00,
2013-04-24 04:11:00,36.0,32.0,30.07,North,-999,-999.0,-999.0,86,-99.99,,,-99.99,,2013-04-24 09:11:00,
2013-04-24 04:21:00,36.0,32.0,30.07,North,-999,-999.0,-999.0,86,-99.99,,,-99.99,,2013-04-24 09:21:00,
2013-04-24 04:33:00,36.0,32.0,30.08,North,-999,-999.0,-999.0,86,-99.99,,,-99.99,,2013-04-24 09:33:00,
2013-04-24 04:42:00,36.0,32.0,30.10,North,-999,-999.0,-999.0,86,-99.99,,,-99.99,,2013-04-24 09:42:00,
2013-04-24 04:53:00,36.0,32.0,30.10,North,-999,-999.0,-999.0,86,-99.99,,,-99.99,,2013-04-24 09:53:00,
2013-04-24 05:02:00,36.0,32.0,30.10,North,-999,-999.0,-999.0,86,-99.99,,,-99.99,,2013-04-24 10:02:00,
2013-04-24 05:12:00,36.0,32.0,30.13,North,-999,-999.0,-999.0,86,-99.99,,,-99.99,,2013-04-24 10:12:00,
2013-04-24 05:22:00,36.0,32.0,30.13,North,-999,-999.0,-999.0,86,-99.99,,,-99.99,,2013-04-24 10:22:00,
2013-04-24 05:32:00,33.0,30.0,30.13,North,-999,-999.0,-999.0,87,-99.99,,,-99.99,,2013-04-24 10:32:00,
2013-04-24 05:42:00,33.0,30.0,30.14,North,-999,-999.0,-999.0,88,-99.99,,,-99.99,,2013-04-24 10:42:00,
2013-04-24 05:52:00,33.0,30.0,30.14,North,-999,-999.0,-999.0,88,-99.99,,,-99.99,,2013-04-24 10:52:00,
2013-04-24 06:02:00,34.0,30.0,30.15,North,-999,-999.0,-999.0,88,-99.99,,,-99.99,,2013-04-24 11:02:00,
2013-04-24 06:11:00,33.0,30.0,30.15,North,-999,-999.0,-999.0,88,-99.99,,,-99.99,,2013-04-24 11:11:00,
2013-04-24 06:21:00,33.0,30.0,30.15,North,-999,-999.0,-999.0,88,-99.99,,,-99.99,,2013-04-24 11:21:00,
2013-04-24 06:32:00,34.0,30.0,30.15,North,-999,-999.0,-999.0,88,-99.99,,,-99.99,,2013-04-24 11:32:00,
2013-04-24 06:42:00,34.0,31.0,30.15,North,-999,-999.0,-999.0,88,-99.99,,,-99.99,,2013-04-24 11:42:00,
2013-04-24 06:52:00,34.0,31.0,30.15,North,-999,-999.0,-999.0,88,-99.99,,,-99.99,,2013-04-24 11:52:00,
2013-04-24 07:02:00,34.0,30.0,30.15,North,-999,-999.0,-999.0,88,-99.99,,,-99.99,,2013-04-24 12:02:00,
2013-04-24 07:11:00,33.0,30.0,30.15,North,-999,-999.0,-999.0,88,-99.99,,,-99.99,,2013-04-24 12:11:00,
2013-04-24 07:22:00,33.0,30.0,30.15,North,-999,-999.0,-999.0,88,-99.99,,,-99.99,,2013-04-24 12:22:00,
2013-04-24 07:32:00,33.0,30.0,30.17,North,-999,-999.0,-999.0,88,-99.99,,,-99.99,,2013-04-24 12:32:00,
2013-04-24 07:42:00,34.0,30.0,30.17,North,-999,-999.0,-999.0,88,-99.99,,,-99.99,,2013-04-24 12:42:00,
2013-04-24 07:50:00,34.0,31.0,30.18,North,-999,-999.0,-999.0,87,-99.99,,,-99.99,,2013-04-24 12:50:00,
2013-04-24 07:51:00,34.0,30.0,30.17,North,-999,-999.0,-999.0,88,-99.99,,,-99.99,,2013-04-24 12:51:00,
2013-04-24 08:01:00,34.0,31.0,30.18,North,-999,-999.0,-999.0,88,-99.99,,,-99.99,,2013-04-24 13:01:00,
2013-04-24 08:12:00,34.0,31.0,30.18,North,-999,-999.0,-999.0,88,-99.99,,,-99.99,,2013-04-24 13:12:00,
2013-04-24 08:22:00,34.0,31.0,30.18,North,-999,-999.0,-999.0,88,-99.99,,,-99.99,,2013-04-24 13:22:00,
2013-04-24 08:30:00,35.0,31.0,30.19,North,-999,-999.0,-999.0,85,-99.99,,,-99.99,,2013-04-24 13:30:00,
2013-04-24 08:32:00,34.0,31.0,30.18,North,-999,-999.0,-999.0,87,-99.99,,,-99.99,,2013-04-24 13:32:00,
2013-04-24 08:41:00,34.0,31.0,30.18,North,-999,-999.0,-999.0,87,-99.99,,,-99.99,,2013-04-24 13:41:00,
2013-04-24 09:11:00,35.0,31.0,30.19,North,-999,-999.0,-999.0,85,-99.99,,,-99.99,,2013-04-24 14:11:00,
2013-04-24 09:21:00,35.0,31.0,30.19,North,-999,-999.0,-999.0,85,-99.99,,,-99.99,,2013-04-24 14:21:00,
2013-04-24 09:42:00,38.0,32.0,30.20,North,-999,-999.0,-999.0,81,-99.99,,,-99.99,,2013-04-24 14:42:00,
2013-04-24 09:52:00,38.0,32.0,30.20,North,-999,-999.0,-999.0,81,-99.99,,,-99.99,,2013-04-24 14:52:00,
2013-04-24 10:01:00,38.0,32.0,30.20,North,-999,-999.0,-999.0,77,-99.99,,,-99.99,,2013-04-24 15:01:00,
2013-04-24 10:11:00,38.0,31.0,30.20,North,-999,-999.0,-999.0,76,-99.99,,,-99.99,,2013-04-24 15:11:00,
2013-04-24 10:21:00,38.0,31.0,30.20,North,-999,-999.0,-999.0,76,-99.99,,,-99.99,,2013-04-24 15:21:00,
2013-04-24 10:30:00,40.0,32.0,30.20,North,-999,-999.0,-999.0,72,-99.99,,,-99.99,,2013-04-24 15:30:00,
2013-04-24 10:33:00,41.0,33.0,30.19,North,-999,-999.0,-999.0,73,-99.99,,,-99.99,,2013-04-24 15:33:00,
2013-04-24 10:43:00,42.0,34.0,30.19,North,-999,-999.0,-999.0,73,-99.99,,,-99.99,,2013-04-24 15:43:00,
2013-04-24 10:53:00,42.0,34.0,30.19,North,-999,-999.0,-999.0,73,-99.99,,,-99.99,,2013-04-24 15:53:00,
2013-04-24 11:03:00,40.0,31.0,30.20,North,-999,-999.0,-999.0,70,-99.99,,,-99.99,,2013-04-24 16:03:00,
2013-04-24 11:12:00,40.0,32.0,30.20,North,-999,-999.0,-999.0,72,-99.99,,,-99.99,,2013-04-24 16:12:00,
2013-04-24 11:23:00,40.0,32.0,30.20,North,-999,-999.0,-999.0,72,-99.99,,,-99.99,,2013-04-24 16:23:00,
2013-04-24 11:42:00,44.0,35.0,30.20,North,-999,-999.0,-999.0,68,-99.99,,,-99.99,,2013-04-24 16:42:00,
2013-04-24 11:53:00,44.0,35.0,30.20,North,-999,-999.0,-999.0,68,-99.99,,,-99.99,,2013-04-24 16:53:00,
2013-04-24 12:02:00,44.0,33.0,30.20,North,-999,-999.0,-999.0,65,-99.99,,,-99.99,,2013-04-24 17:02:00,
2013-04-24 12:12:00,44.0,32.0,30.21,North,-999,-999.0,-999.0,64,-99.99,,,-99.99,,2013-04-24 17:12:00,
2013-04-24 12:22:00,44.0,32.0,30.21,North,-999,-999.0,-999.0,64,-99.99,,,-99.99,,2013-04-24 17:22:00,
2013-04-24 12:32:00,44.0,32.0,30.22,North,-999,-999.0,-999.0,63,-99.99,,,-99.99,,2013-04-24 17:32:00,
2013-04-24 12:42:00,46.0,34.0,30.22,North,-999,-999.0,-999.0,62,-99.99,,,-99.99,,2013-04-24 17:42:00,
2013-04-24 12:51:00,46.0,34.0,30.22,North,-999,-999.0,-999.0,62,-99.99,,,-99.99,,2013-04-24 17:51:00,
2013-04-24 13:02:00,46.0,32.0,30.22,North,-999,-999.0,-999.0,58,-99.99,,,-99.99,,2013-04-24 18:02:00,
2013-04-24 13:12:00,48.0,32.0,30.22,North,-999,-999.0,-999.0,55,-99.99,,,-99.99,,2013-04-24 18:12:00,
2013-04-24 13:22:00,48.0,32.0,30.22,North,-999,-999.0,-999.0,55,-99.99,,,-99.99,,2013-04-24 18:22:00,
2013-04-24 13:33:00,49.0,34.0,30.23,North,-999,-999.0,-999.0,56,-99.99,,,-99.99,,2013-04-24 18:33:00,
2013-04-24 13:42:00,47.0,30.0,30.23,North,-999,-999.0,-999.0,51,-99.99,,,-99.99,,2013-04-24 18:42:00,
2013-04-24 13:52:00,47.0,30.0,30.23,North,-999,-999.0,-999.0,51,-99.99,,,-99.99,,2013-04-24 18:52:00,
2013-04-24 14:00:00,51.0,29.0,30.21,North,-999,-999.0,-999.0,42,-99.99,,,-99.99,,2013-04-24 19:00:00,
2013-04-24 14:02:00,49.0,35.0,30.23,North,-999,-999.0,-999.0,57,-99.99,,,-99.99,,2013-04-24 19:02:00,
2013-04-24 14:11:00,50.0,35.0,30.22,North,-999,-999.0,-999.0,56,-99.99,,,-99.99,,2013-04-24 19:11:00,
2013-04-24 14:22:00,50.0,35.0,30.22,North,-999,-999.0,-999.0,56,-99.99,,,-99.99,,2013-04-24 19:22:00,
2013-04-24 14:32:00,50.0,33.0,30.22,North,-999,-999.0,-999.0,52,-99.99,,,-99.99,,2013-04-24 19:32:00,
2013-04-24 14:42:00,51.0,29.0,30.21,North,-999,-999.0,-999.0,42,-99.99,,,-99.99,,2013-04-24 19:42:00,
2013-04-24 14:52:00,51.0,29.0,30.21,North,-999,-999.0,-999.0,42,-99.99,,,-99.99,,2013-04-24 19:52:00,
2013-04-24 15:11:00,51.0,34.0,30.21,North,-999,-999.0,-999.0,53,-99.99,,,-99.99,,2013-04-24 20:11:00,
2013-04-24 15:22:00,51.0,34.0,30.21,North,-999,-999.0,-999.0,53,-99.99,,,-99.99,,2013-04-24 20:22:00,
2013-04-24 15:32:00,51.0,32.0,30.21,North,-999,-999.0,-999.0,49,-99.99,,,-99.99,,2013-04-24 20:32:00,
2013-04-24 15:42:00,51.0,29.0,30.21,North,-999,-999.0,-999.0,43,-99.99,,,-99.99,,2013-04-24 20:42:00,
2013-04-24 15:52:00,51.0,29.0,30.21,North,-999,-999.0,-999.0,43,-99.99,,,-99.99,,2013-04-24 20:52:00,
2013-04-24 16:02:00,51.0,32.0,30.22,North,-999,-999.0,-999.0,48,-99.99,,,-99.99,,2013-04-24 21:02:00,
2013-04-24 16:11:00,53.0,34.0,30.22,North,-999,-999.0,-999.0,48,-99.99,,,-99.99,,2013-04-24 21:11:00,
2013-04-24 16:21:00,53.0,34.0,30.22,North,-999,-999.0,-999.0,48,-99.99,,,-99.99,,2013-04-24 21:21:00,
2013-04-24 16:33:00,52.0,29.0,30.21,North,-999,-999.0,-999.0,41,-99.99,,,-99.99,,2013-04-24 21:33:00,
2013-04-24 16:42:00,53.0,34.0,30.21,North,-999,-999.0,-999.0,49,-99.99,,,-99.99,,2013-04-24 21:42:00,
2013-04-24 16:52:00,53.0,34.0,30.21,North,-999,-999.0,-999.0,49,-99.99,,,-99.99,,2013-04-24 21:52:00,
2013-04-24 17:03:00,53.0,34.0,30.21,North,-999,-999.0,-999.0,48,-99.99,,,-99.99,,2013-04-24 22:03:00,
2013-04-24 17:12:00,53.0,36.0,30.21,North,-999,-999.0,-999.0,52,-99.99,,,-99.99,,2013-04-24 22:12:00,
2013-04-24 17:22:00,53.0,36.0,30.21,North,-999,-999.0,-999.0,52,-99.99,,,-99.99,,2013-04-24 22:22:00,
2013-04-24 17:33:00,52.0,30.0,30.21,North,-999,-999.0,-999.0,42,-99.99,,,-99.99,,2013-04-24 22:33:00,
2013-04-24 17:42:00,52.0,28.0,30.20,North,-999,-999.0,-999.0,40,-99.99,,,-99.99,,2013-04-24 22:42:00,
2013-04-24 17:52:00,52.0,28.0,30.20,North,-999,-999.0,-999.0,40,-99.99,,,-99.99,,2013-04-24 22:52:00,
2013-04-24 18:02:00,52.0,30.0,30.20,North,-999,-999.0,-999.0,43,-99.99,,,-99.99,,2013-04-24 23:02:00,
2013-04-24 18:12:00,53.0,30.0,30.20,North,-999,-999.0,-999.0,42,-99.99,,,-99.99,,2013-04-24 23:12:00,
2013-04-24 18:21:00,53.0,30.0,30.20,North,-999,-999.0,-999.0,42,-99.99,,,-99.99,,2013-04-24 23:21:00,
2013-04-24 18:32:00,51.0,31.0,30.21,North,-999,-999.0,-999.0,46,-99.99,,,-99.99,,2013-04-24 23:32:00,
2013-04-24 18:42:00,52.0,31.0,30.21,North,-999,-999.0,-999.0,45,-99.99,,,-99.99,,2013-04-24 23:42:00,
2013-04-24 18:51:00,52.0,31.0,30.21,North,-999,-999.0,-999.0,45,-99.99,,,-99.99,,2013-04-24 23:51:00,
2013-04-24 19:02:00,50.0,28.0,30.21,North,-999,-999.0,-999.0,42,-99.99,,,-99.99,,2013-04-25 00:02:00,
2013-04-24 19:12:00,50.0,27.0,30.21,North,-999,-999.0,-999.0,41,-99.99,,,-99.99,,2013-04-25 00:12:00,
2013-04-24 19:22:00,50.0,27.0,30.21,North,-999,-999.0,-999.0,41,-99.99,,,-99.99,,2013-04-25 00:22:00,
2013-04-24 19:32:00,50.0,29.0,30.21,North,-999,-999.0,-999.0,44,-99.99,,,-99.99,,2013-04-25 00:32:00,
2013-04-24 19:42:00,49.0,28.0,30.22,North,-999,-999.0,-999.0,44,-99.99,,,-99.99,,2013-04-25 00:42:00,
2013-04-24 19:52:00,49.0,28.0,30.22,North,-999,-999.0,-999.0,44,-99.99,,,-99.99,,2013-04-25 00:52:00,
2013-04-24 20:01:00,48.0,30.0,30.21,North,-999,-999.0,-999.0,49,-99.99,,,-99.99,,2013-04-25 01:01:00,
2013-04-24 20:11:00,47.0,29.0,30.21,North,-999,-999.0,-999.0,50,-99.99,,,-99.99,,2013-04-25 01:11:00,
2013-04-24 20:23:00,47.0,29.0,30.21,North,-999,-999.0,-999.0,50,-99.99,,,-99.99,,2013-04-25 01:23:00,
2013-04-24 20:32:00,46.0,28.0,30.21,North,-999,-999.0,-999.0,49,-99.99,,,-99.99,,2013-04-25 01:32:00,
2013-04-24 20:42:00,46.0,29.0,30.21,North,-999,-999.0,-999.0,50,-99.99,,,-99.99,,2013-04-25 01:42:00,
2013-04-24 20:50:00,45.0,27.0,30.22,North,-999,-999.0,-999.0,48,-99.99,,,-99.99,,2013-04-25 01:50:00,
2013-04-24 20:52:00,46.0,29.0,30.21,North,-999,-999.0,-999.0,50,-99.99,,,-99.99,,2013-04-25 01:52:00,
2013-04-24 21:02:00,45.0,28.0,30.21,North,-999,-999.0,-999.0,51,-99.99,,,-99.99,,2013-04-25 02:02:00,
2013-04-24 21:11:00,45.0,27.0,30.21,North,-999,-999.0,-999.0,49,-99.99,,,-99.99,,2013-04-25 02:11:00,
2013-04-24 21:22:00,45.0,27.0,30.21,North,-999,-999.0,-999.0,49,-99.99,,,-99.99,,2013-04-25 02:22:00,
2013-04-24 21:32:00,45.0,27.0,30.22,North,-999,-999.0,-999.0,48,-99.99,,,-99.99,,2013-04-25 02:32:00,
2013-04-24 21:42:00,45.0,27.0,30.22,North,-999,-999.0,-999.0,48,-99.99,,,-99.99,,2013-04-25 02:42:00,
2013-04-24 22:02:00,45.0,27.0,30.24,North,-999,-999.0,-999.0,49,-99.99,,,-99.99,,2013-04-25 03:02:00,
2013-04-24 22:11:00,44.0,26.0,30.24,North,-999,-999.0,-999.0,50,-99.99,,,-99.99,,2013-04-25 03:11:00,
2013-04-24 22:22:00,44.0,26.0,30.24,North,-999,-999.0,-999.0,50,-99.99,,,-99.99,,2013-04-25 03:22:00,
2013-04-24 22:33:00,44.0,26.0,30.24,North,-999,-999.0,-999.0,50,-99.99,,,-99.99,,2013-04-25 03:33:00,
2013-04-24 22:42:00,44.0,26.0,30.24,North,-999,-999.0,-999.0,50,-99.99,,,-99.99,,2013-04-25 03:42:00,
2013-04-24 22:52:00,44.0,26.0,30.24,North,-999,-999.0,-999.0,50,-99.99,,,-99.99,,2013-04-25 03:52:00,
2013-04-24 23:03:00,43.0,27.0,30.24,North,-999,-999.0,-999.0,53,-99.99,,,-99.99,,2013-04-25 04:03:00,
2013-04-24 23:12:00,42.0,27.0,30.24,North,-999,-999.0,-999.0,53,-99.99,,,-99.99,,2013-04-25 04:12:00,
2013-04-24 23:23:00,42.0,27.0,30.24,North,-999,-999.0,-999.0,53,-99.99,,,-99.99,,2013-04-25 04:23:00,
2013-04-24 23:32:00,42.0,28.0,30.25,North,-999,-999.0,-999.0,56,-99.99,,,-99.99,,2013-04-25 04:32:00,
2013-04-24 23:43:00,42.0,28.0,30.25,North,-999,-999.0,-999.0,58,-99.99,,,-99.99,,2013-04-25 04:43:00,
2013-04-24 23:52:00,42.0,28.0,30.25,North,-999,-999.0,-999.0,58,-99.99,,,-99.99,,2013-04-25 04:52:00,